Regional Weather Roundup
Issued by NWS Upton, NY

Current Version | Previous Version | Text Only | Print | Product List | Glossary On
Versions: 1 2 3 4 5 6 7 8 9 10 11 12 13 14 15 16 17 18 19 20 21 22 23 24 25 26 27
000 ASUS41 KOKX 190409 RWROKX Regional Weather Roundup National Weather Service New York NY 1100 PM EST THU JAN 18 2018 Note: "FAIR" indicates few or no clouds below 12,000 feet with no significant weather and/or obstructions to visibility. NYZ071-072-176-178-NJZ106-104-190500- New York City Metro Area CITY SKY/WX TMP DP RH WIND PRES REMARKS Central Park FAIR 26 12 55 VRB5 30.09F WCI 20 Bronx Bot Gard N/A 27 12 54 W7 30.09S WCI 19 Bronx Lehman C N/A 27 14 59 NW6 N/A WCI 20 LaGuardia Arpt FAIR 27 13 55 NW14 30.08F WCI 16 Queens College N/A 28 14 54 NW9 N/A WCI 20 Kennedy Intl FAIR 27 13 55 NW14 30.09F WCI 16 Breezy Point N/A N/A N/A N/A NW7G13 N/A Brooklyn Coll N/A 28 14 54 NW7 N/A WCI 21 Staten Island N/A 27 14 59 W5 N/A WCI 21 Newark/Liberty FAIR 26 12 55 NW9 30.09F WCI 17 Teterboro FAIR 25 13 60 NW7 30.08F WCI 17 $$ NYZ177-179-078>081-190500- Long Island New York CITY SKY/WX TMP DP RH WIND PRES REMARKS Jones Beach N/A N/A N/A N/A NW14G21 N/A Wantagh N/A 28 16 59 W7 N/A WCI 21 Matinecock Pt N/A N/A N/A N/A W16 N/A Farmingdale FAIR 24 14 65 NW6 30.07S WCI 17 MacArthur/ISP FAIR 25 15 66 W6 30.05F WCI 18 Shirley N/A N/A N/A N/A MISG 30.06S Mt Sinai Harb N/A N/A N/A N/A NW7 N/A Westhampton FAIR 26 15 63 NW12 30.05S WCI 16 East Hampton FAIR 25 16 66 NW10G16 30.02S WCI 15 Southold N/A 28 19 69 NW10 N/A WCI 19 Montauk N/A 30 19 63 NW16G23 30.01S WCI 19 $$ NYZ052-065-067-190500- Hudson Valley CITY SKY/WX TMP DP RH WIND PRES REMARKS White Plains FAIR 21 13 71 NW6 30.03F WCI 13 Larchmont Harb N/A N/A N/A N/A W7 N/A Croton On Huds N/A N/A N/A N/A N1 N/A Somers N/A 18 14 86 CALM N/A Brewster N/A 14 12 92 CALM N/A Newburgh CLEAR 18 14 86 W7 30.04F WCI 8 Montgomery FAIR 17 10 74 SW8 30.04S WCI 7 Otisville N/A 14 9 79 S3 N/A Warwick N/A 16 12 86 SW1 N/A Suffern N/A 23 12 63 W5 N/A WCI 17 Poughkeepsie FAIR 9 5 84 CALM 30.05F Albany FLURRIES 23 14 68 NW7 30.03F WCI 15 $$ NJZ001-105-106-008-010-013-015-019>022-104-190500- New Jersey CITY SKY/WX TMP DP RH WIND PRES REMARKS Newark/Liberty FAIR 26 12 55 NW9 30.09F WCI 17 Teterboro FAIR 25 13 60 NW7 30.08F WCI 17 Caldwell FAIR 19 12 74 CALM 30.08F Somerville FAIR 15 13 91 CALM 30.08S Linden FAIR 25 12 56 CALM 30.09F Perth Amboy N/A N/A N/A N/A W5 N/A Sussex FAIR 11 8 88 CALM 30.06S Andover N/A 8 5 87 CALM 30.06S Trenton FAIR 22 11 62 CALM 30.09S Millville FAIR 19 15 84 CALM 30.11S Atlantic City FAIR 24 14 65 NW5 30.11S WCI 18 Wrightstown FAIR 22 12 64 W5 30.07S WCI 16 Toms River FAIR 17 12 80 CALM 30.11S Belmar FAIR 22 12 65 W3 30.10 $$ PAZ047>061-062-071-190500- Eastern Pennsylvania CITY SKY/WX TMP DP RH WIND PRES REMARKS Philadelphia FAIR 28 11 48 CALM 30.12S Allentown FAIR 16 7 67 SW3 30.07F Scranton FAIR 15 10 80 S3 30.02F $$ CTZ002-004>006-009-010-012-RIZ004-006-007-MAZ004-011-015-190500- Southern New England In CT CITY SKY/WX TMP DP RH WIND PRES REMARKS Bradley Intl FAIR 20 12 71 NW8 30.02S WCI 10 Hartford FAIR 23 14 68 W6 30.04S WCI 16 Danbury FAIR 13 10 88 SW5 30.05S WCI 5 Wtrbury/Oxford CLOUDY 20 13 74 NW3 30.01F Norwalk Harbor N/A N/A N/A N/A W8 N/A Bridgeport FAIR 24 13 62 NW8 30.06F WCI 15 Meriden FAIR 21 13 71 W12 30.04S WCI 9 New Haven FAIR 26 15 63 NW6 30.05S WCI 19 Chester FAIR 23 14 68 NW8G15 30.00F WCI 14 Groton FAIR 24 14 65 NW13 30.01S WCI 12 Willimantic FAIR 22 13 68 W7 30.01R WCI 13 In RI CITY SKY/WX TMP DP RH WIND PRES REMARKS Providence FAIR 24 16 71 W9 29.98S WCI 14 Block Island FAIR 26 18 71 NW13G23 29.99S WCI 15 Westerly FAIR 25 15 66 NW6 30.00S WCI 18 In MA CITY SKY/WX TMP DP RH WIND PRES REMARKS Boston FAIR 25 16 68 W12 29.95S WCI 14 Worcester FAIR 17 11 77 W13 29.91S WCI 4 Westfield FAIR 21 13 71 W8 30.00F WCI 11 Provincetown CLOUDY 31 23 72 MISG N/A Nantucket CLOUDY 29 21 72 NW15 29.92F WCI 18 $$ ANZ330-335-338-340-345-350-353-355-190500- Coastal Marine Observations STATION/POSITION TIME SKY/WX TEMP WIND PRES VSBY WAVE AIR SEA DIR/SP/G HT/PER (UTC) (F) (DEG/KT/KT) (MB) (MI) (FT/S) NY Harb Entrance 0350 31 40 300/ 16/ 19 1018.2 3/10 20 S Fire Island 0350 31 42 310/ 16/ 19 1018.1 3/ 4 15 E Barnegat Li 0330 43 N/A 4/ 4 Hudson Canyon 0350 36 49 330/ 19/ 25 1016.5 6/ 6 Kings Point 0348 27 32 350/ 11/ 14 1019.4 Execution Rocks NOT AVBL Western LI Sound NOT AVBL Central LI Sound 0330 28 320/ 14/ 17 N/A 1 Robbins Reef 0348 27 310/ 11/ 14 1019.3 $$ >>>>>>>>>>>>>>>>>>>>>>>>>>>> KEY <<<<<<<<<<<<<<<<<<<<<<<<<<< > < > SKY/WX - Sky Condition/Present Weather < > TMP - Temperature in Fahrenheit < > DP - Dew Point in Fahrenheit < > RH - Relative Humidity in Percent < > WIND - Direction (from) and Speed in MPH < > PRES - Mean Sea Level Pressure (inches of Hg) < > WCI - Wind Chill Index < > VSB - Visibility in Miles < > HX - Heat Index < > TC - Temperature in Celsius < > VRB - Varibale Wind Direction < > < >>>>>>>>>>>>>>>>>>>>>>>>>>>> KEY <<<<<<<<<<<<<<<<<<<<<<<<<<<

USA.gov is the U.S. government's official web portal to all federal, state and local government web resources and services.